Starlink 3073

operational
NORAD ID: 49135 Int'l Des: 2021-082 Owner: SPXS Country: US Constellation: starlink
LEOCIRCULAR

Über Starlink 3073

Beschreibung wird geladen...

Live-Position

3D-Globus wird geladen...

Nächste Überflüge

Höhenverlauf

Altitude vs Time

uPlot chart will show altitude changes over time

Zweizeiliger Elementsatz

1 49135U 21082F 25304.17411257 .00000946 00000-0 87069-4 0 9990
2 49135 69.9995 220.9899 0002668 267.2767 92.8087 14.98334134227576
Epoch: 31. Okt. 2025 • Age: 13 hours

Aktueller Status

Höhe 585.5 km
Geschwindigkeit 7.57 km/s
Subsatellitenpunkt -39.80°S, 90.23°W
Startdatum 14. Sept. 2021
Alter 4.1 years
Typ internet

Technische Details

Klassifizierung Payload
Masse 297.00 kg
Trockenmasse 275.00 kg
Gesamtmasse 297.00 kg
Länge 0.20 m
Durchmesser 2.80 m
Spannweite 9.00 m
Form Box + pan
Hersteller SPXS
Bus-Typ Starlink
Phasenstatus In Orbit
Besitzer/Staat SPXS/US

Große Konstellationen

Loading constellations...